| time (UTC) | temp C | wind direction | speed KPH | gust KPH | rain 1hr cm | rain 24hr cm | rain mn cm | humidity % | barometer mb |
| 20260903143021 | 18 | 210 | 0.0 | 3.2 | 0.05 | 0.08 | 0.08 | 82 | 1020.4 |
| 20260903141523 | 18 | 210 | 1.6 | 4.8 | 0.05 | 0.05 | 0.05 | 81 | 1020.5 |
| 20260903140510 | 19 | 0.0 | 1.6 | 0.05 | 0.05 | 0.05 | 79 | 1021.6 | |
| 20260903140017 | 18 | 210 | 0.0 | 3.2 | 0.05 | 0.05 | 0.05 | 80 | 1020.4 |
| 20260903134517 | 19 | 210 | 0.0 | 3.2 | 0.05 | 0.05 | 0.05 | 77 | 1020.4 |
| 20260903133017 | 20 | 238 | 1.6 | 8.0 | 0.00 | 0.00 | 0.00 | 72 | 1020.9 |
| 20260903131515 | 21 | 257 | 3.2 | 9.7 | 0.00 | 0.00 | 0.00 | 66 | 1020.3 |
| 20260903130609 | 21 | 248 | 1.6 | 3.2 | 0.00 | 0.00 | 0.00 | 65 | 1021.7 |
| 20260903130014 | 21 | 204 | 4.8 | 16.1 | 0.00 | 0.00 | 0.00 | 64 | 1020.3 |
| 20260903124513 | 21 | 269 | 1.6 | 19.3 | 0.00 | 0.00 | 0.00 | 64 | 1020.3 |
| 20260903123023 | 21 | 223 | 6.4 | 16.1 | 0.00 | 0.00 | 0.00 | 64 | 1020.3 |
| 20260903121514 | 21 | 265 | 1.6 | 17.7 | 0.00 | 0.00 | 0.00 | 65 | 1020.4 |
| 20260903120536 | 22 | 225 | 6.4 | 12.9 | 0.00 | 0.00 | 0.00 | 62 | 1021.9 |
| 20260903120012 | 22 | 195 | 3.2 | 16.1 | 0.00 | 0.00 | 0.00 | 63 | 1020.6 |
| 20260903114511 | 22 | 209 | 9.7 | 24.1 | 0.00 | 0.00 | 0.00 | 60 | 1020.4 |
| 20260903113019 | 22 | 217 | 1.6 | 12.9 | 0.00 | 0.00 | 0.00 | 62 | 1020.5 |
| 20260903111509 | 22 | 198 | 3.2 | 14.5 | 0.00 | 0.00 | 0.00 | 62 | 1020.7 |
| 20260903110424 | 22 | 225 | 4.8 | 9.7 | 0.00 | 0.00 | 0.00 | 59 | 1022.2 |
| 20260903110008 | 22 | 306 | 1.6 | 19.3 | 0.00 | 0.00 | 0.00 | 59 | 1020.7 |
| 20260903104506 | 22 | 213 | 8.0 | 17.7 | 0.00 | 0.00 | 0.00 | 59 | 1020.8 |
| 20260903103005 | 22 | 254 | 4.8 | 17.7 | 0.00 | 0.00 | 0.00 | 61 | 1021.2 |
| 20260903101502 | 21 | 130 | 6.4 | 19.3 | 0.00 | 0.00 | 0.00 | 59 | 1021.1 |
| 20260903100514 | 21 | 203 | 1.6 | 3.2 | 0.00 | 0.00 | 0.00 | 60 | 1022.6 |
| 20260903100002 | 21 | 215 | 8.0 | 16.1 | 0.00 | 0.00 | 0.00 | 59 | 1021.2 |
| 20260903094602 | 21 | 278 | 3.2 | 17.7 | 0.00 | 0.00 | 0.00 | 64 | 1021.2 |
| 20260903093101 | 21 | 199 | 3.2 | 17.7 | 0.00 | 0.00 | 0.00 | 63 | 1021.5 |
| 20260903091557 | 21 | 277 | 1.6 | 9.7 | 0.00 | 0.00 | 0.00 | 63 | 1021.4 |
| 20260903090437 | 20 | 225 | 6.4 | 14.5 | 0.00 | 0.00 | 0.00 | 66 | 1022.8 |
| 20260903090052 | 20 | 209 | 1.6 | 14.5 | 0.00 | 0.00 | 0.00 | 65 | 1021.5 |
| 20260903084550 | 19 | 216 | 1.6 | 12.9 | 0.00 | 0.00 | 0.00 | 65 | 1021.5 |
| 20260903083046 | 19 | 210 | 3.2 | 12.9 | 0.00 | 0.00 | 0.00 | 68 | 1021.2 |
| 20260903081546 | 19 | 215 | 1.6 | 9.7 | 0.00 | 0.00 | 0.00 | 68 | 1021.0 |
| 20260903080528 | 19 | 0.0 | 0.0 | 0.00 | 0.00 | 0.00 | 72 | 1022.8 | |
| 20260903080043 | 19 | 212 | 0.0 | 0.0 | 0.00 | 0.00 | 0.00 | 70 | 1021.3 |
| 20260903074543 | 18 | 215 | 0.0 | 0.0 | 0.00 | 0.00 | 0.00 | 73 | 1021.6 |
| 20260903073035 | 17 | 198 | 0.0 | 0.0 | 0.00 | 0.00 | 0.00 | 80 | 1021.6 |
| 20260903071531 | 16 | 198 | 0.0 | 0.0 | 0.00 | 0.00 | 0.00 | 88 | 1021.6 |
| 20260903070438 | 15 | 0.0 | 0.0 | 0.00 | 0.00 | 0.00 | 92 | 1022.9 | |
| 20260903070032 | 15 | 197 | 0.0 | 0.0 | 0.00 | 0.00 | 0.00 | 91 | 1021.7 |
| 20260903064525 | 13 | 197 | 0.0 | 0.0 | 0.00 | 0.00 | 0.00 | 92 | 1021.8 |
| 20260903063025 | 12 | 197 | 0.0 | 0.0 | 0.00 | 0.00 | 0.00 | 91 | 1022.0 |
| 20260903061523 | 11 | 198 | 0.0 | 0.0 | 0.00 | 0.00 | 0.00 | 89 | 1021.9 |
| 20260903060417 | 11 | 0.0 | 0.0 | 0.00 | 0.00 | 0.00 | 89 | 1022.5 | |
| 20260903060123 | 11 | 215 | 0.0 | 0.0 | 0.00 | 0.00 | 0.00 | 89 | 1021.9 |
| 20260903054531 | 11 | 215 | 0.0 | 0.0 | 0.00 | 0.00 | 0.00 | 88 | 1021.6 |
| 20260903053019 | 11 | 215 | 0.0 | 0.0 | 0.00 | 0.00 | 0.00 | 88 | 1021.5 |
| 20260903051519 | 11 | 215 | 0.0 | 0.0 | 0.00 | 0.00 | 0.00 | 88 | 1021.4 |
| 20260903050429 | 11 | 0.0 | 0.0 | 0.00 | 0.00 | 0.00 | 88 | 1022.3 | |
| 20260903050018 | 11 | 215 | 0.0 | 0.0 | 0.00 | 0.00 | 0.00 | 88 | 1021.3 |
| 20260903044517 | 11 | 215 | 0.0 | 0.0 | 0.00 | 0.03 | 0.00 | 87 | 1021.2 |
| 20260903043017 | 11 | 215 | 0.0 | 0.0 | 0.00 | 0.03 | 0.00 | 87 | 1021.3 |
| 20260903041517 | 11 | 215 | 0.0 | 0.0 | 0.00 | 0.03 | 0.00 | 86 | 1021.2 |
| 20260903040404 | 11 | 0.0 | 0.0 | 0.00 | 0.03 | 0.00 | 86 | 1022.3 | |
| 20260903040013 | 11 | 215 | 0.0 | 0.0 | 0.00 | 0.03 | 0.00 | 86 | 1021.3 |
| 20260903034514 | 11 | 215 | 0.0 | 0.0 | 0.00 | 0.03 | 0.00 | 86 | 1021.1 |
| 20260903033013 | 12 | 215 | 0.0 | 0.0 | 0.00 | 0.03 | 0.00 | 86 | 1021.3 |
| 20260903031515 | 12 | 215 | 0.0 | 0.0 | 0.00 | 0.03 | 0.00 | 86 | 1021.3 |
| 20260903030342 | 12 | 0.0 | 0.0 | 0.00 | 0.03 | 0.00 | 85 | 1022.2 | |
| 20260903030006 | 12 | 215 | 0.0 | 0.0 | 0.00 | 0.03 | 0.00 | 85 | 1021.3 |
| 20260903024504 | 12 | 215 | 0.0 | 0.0 | 0.00 | 0.03 | 0.00 | 85 | 1021.0 |
| 20260903023001 | 13 | 215 | 0.0 | 0.0 | 0.00 | 0.03 | 0.00 | 85 | 1021.1 |
| 20260903021600 | 13 | 215 | 0.0 | 0.0 | 0.00 | 0.03 | 0.00 | 84 | 1021.0 |
| 20260903020404 | 14 | 0.0 | 0.0 | 0.00 | 0.03 | 0.00 | 84 | 1022.5 | |
| 20260903020059 | 13 | 215 | 0.0 | 0.0 | 0.00 | 0.03 | 0.00 | 84 | 1021.0 |
| 20260903014608 | 13 | 215 | 0.0 | 0.0 | 0.00 | 0.03 | 0.00 | 84 | 1021.1 |
| 20260903013054 | 14 | 215 | 0.0 | 0.0 | 0.00 | 0.03 | 0.00 | 84 | 1021.1 |
| 20260903011553 | 14 | 215 | 0.0 | 0.0 | 0.00 | 0.03 | 0.00 | 84 | 1021.0 |
| 20260903010355 | 15 | 0.0 | 0.0 | 0.00 | 0.03 | 0.00 | 84 | 1022.2 | |
| 20260903010052 | 14 | 215 | 0.0 | 0.0 | 0.00 | 0.03 | 0.00 | 84 | 1020.9 |
| 20260903004550 | 15 | 215 | 0.0 | 0.0 | 0.00 | 0.03 | 0.00 | 84 | 1020.8 |
| 20260903003049 | 15 | 215 | 0.0 | 0.0 | 0.00 | 0.03 | 0.00 | 85 | 1020.9 |
| 20260903001549 | 15 | 215 | 0.0 | 0.0 | 0.00 | 0.03 | 0.00 | 84 | 1020.9 |
| 20260903000326 | 15 | 0.0 | 0.0 | 0.00 | 0.03 | 0.00 | 84 | 1022.1 | |
| 20260903000050 | 15 | 215 | 0.0 | 0.0 | 0.00 | 0.03 | 0.00 | 84 | 1020.8 |
| 20260902234548 | 15 | 215 | 0.0 | 0.0 | 0.00 | 0.03 | 0.00 | 83 | 1021.0 |
| 20260902233047 | 15 | 215 | 0.0 | 0.0 | 0.00 | 0.03 | 0.00 | 83 | 1021.0 |
| 20260902231546 | 15 | 215 | 0.0 | 0.0 | 0.00 | 0.03 | 0.00 | 83 | 1021.1 |
| 20260902230417 | 15 | 0.0 | 0.0 | 0.00 | 0.03 | 0.00 | 84 | 1022.3 | |
| 20260902230045 | 15 | 215 | 0.0 | 0.0 | 0.00 | 0.03 | 0.00 | 84 | 1021.1 |
| 20260902224547 | 15 | 215 | 0.0 | 0.0 | 0.00 | 0.03 | 0.00 | 84 | 1021.0 |
| 20260902223041 | 15 | 215 | 0.0 | 0.0 | 0.00 | 0.03 | 0.00 | 83 | 1021.0 |
| 20260902221541 | 15 | 215 | 0.0 | 0.0 | 0.00 | 0.03 | 0.00 | 82 | 1021.1 |
| 20260902220328 | 15 | 0.0 | 0.0 | 0.00 | 0.03 | 0.03 | 81 | 1022.3 | |
| 20260902220040 | 15 | 215 | 0.0 | 0.0 | 0.00 | 0.03 | 0.00 | 81 | 1021.1 |
| 20260902214542 | 15 | 215 | 0.0 | 0.0 | 0.00 | 0.03 | 0.03 | 82 | 1021.1 |
| 20260902213039 | 15 | 215 | 0.0 | 0.0 | 0.00 | 0.03 | 0.03 | 82 | 1021.1 |
| 20260902211538 | 15 | 215 | 0.0 | 0.0 | 0.00 | 0.03 | 0.03 | 80 | 1020.9 |
| 20260902210257 | 16 | 0.0 | 0.0 | 0.00 | 0.03 | 0.03 | 79 | 1022.0 | |
| 20260902210051 | 15 | 215 | 0.0 | 0.0 | 0.00 | 0.03 | 0.03 | 80 | 1020.9 |
| 20260902204537 | 15 | 215 | 0.0 | 0.0 | 0.00 | 0.03 | 0.03 | 79 | 1020.8 |
| 20260902203037 | 16 | 215 | 0.0 | 0.0 | 0.00 | 0.03 | 0.03 | 77 | 1020.9 |
| 20260902201539 | 16 | 215 | 0.0 | 0.0 | 0.00 | 0.03 | 0.03 | 75 | 1020.7 |
| 20260902200329 | 17 | 0.0 | 0.0 | 0.00 | 0.03 | 0.03 | 74 | 1021.5 | |
| 20260902200036 | 16 | 215 | 0.0 | 0.0 | 0.00 | 0.03 | 0.03 | 75 | 1020.6 |
| 20260902194539 | 17 | 215 | 0.0 | 0.0 | 0.00 | 0.03 | 0.03 | 74 | 1020.5 |
| 20260902193037 | 17 | 215 | 0.0 | 0.0 | 0.00 | 0.03 | 0.03 | 71 | 1020.5 |
| 20260902191536 | 17 | 215 | 0.0 | 0.0 | 0.00 | 0.03 | 0.03 | 71 | 1020.3 |
| 20260902190257 | 18 | 0.0 | 0.0 | 0.00 | 0.03 | 0.03 | 68 | 1020.8 | |
| 20260902190034 | 18 | 215 | 0.0 | 1.6 | 0.00 | 0.03 | 0.03 | 69 | 1020.2 |
| 20260902184533 | 18 | 215 | 0.0 | 0.0 | 0.00 | 0.03 | 0.03 | 67 | 1020.0 |
| 20260902183033 | 19 | 215 | 0.0 | 0.0 | 0.00 | 0.03 | 0.03 | 65 | 1019.8 |
| 20260902181532 | 19 | 215 | 0.0 | 0.0 | 0.00 | 0.03 | 0.03 | 65 | 1019.6 |
| 20260902180330 | 20 | 0.0 | 0.0 | 0.00 | 0.03 | 0.03 | 64 | 1020.1 | |
| 20260902180031 | 20 | 215 | 0.0 | 0.0 | 0.00 | 0.03 | 0.03 | 64 | 1019.6 |
| 20260902174531 | 20 | 215 | 0.0 | 0.0 | 0.00 | 0.03 | 0.03 | 64 | 1019.4 |
| 20260902173035 | 20 | 215 | 0.0 | 4.8 | 0.00 | 0.03 | 0.03 | 67 | 1019.3 |
| 20260902171529 | 21 | 215 | 0.0 | 4.8 | 0.00 | 0.03 | 0.03 | 66 | 1019.1 |
| 20260902170256 | 21 | 0.0 | 0.0 | 0.00 | 0.03 | 0.03 | 65 | 1020.2 | |
| 20260902170029 | 21 | 214 | 0.0 | 3.2 | 0.00 | 0.03 | 0.03 | 64 | 1019.2 |
| 20260902164533 | 21 | 213 | 0.0 | 6.4 | 0.00 | 0.03 | 0.03 | 65 | 1019.3 |
| 20260902163029 | 22 | 274 | 0.0 | 3.2 | 0.00 | 0.03 | 0.03 | 63 | 1019.3 |
| 20260902161527 | 22 | 273 | 1.6 | 4.8 | 0.00 | 0.03 | 0.03 | 61 | 1019.3 |
| 20260902160328 | 22 | 203 | 3.2 | 6.4 | 0.00 | 0.03 | 0.03 | 61 | 1020.4 |
| 20260902160025 | 22 | 205 | 3.2 | 8.0 | 0.00 | 0.03 | 0.03 | 61 | 1019.5 |
| 20260902154526 | 22 | 265 | 0.0 | 12.9 | 0.00 | 0.03 | 0.03 | 60 | 1019.4 |
| 20260902153027 | 22 | 211 | 3.2 | 8.0 | 0.00 | 0.03 | 0.03 | 58 | 1019.5 |
| 20260902151522 | 22 | 203 | 1.6 | 11.3 | 0.00 | 0.03 | 0.03 | 60 | 1019.5 |
| 20260902150257 | 23 | 0.0 | 0.0 | 0.00 | 0.03 | 0.03 | 59 | 1020.7 | |
| 20260902150022 | 23 | 209 | 1.6 | 8.0 | 0.00 | 0.03 | 0.03 | 58 | 1019.6 |
| 20260902144532 | 23 | 246 | 0.0 | 6.4 | 0.00 | 0.03 | 0.03 | 60 | 1019.6 |